15min,AgWx,beryljct,423,25AUG2018:00:00:00,69.8,13,74.5,74.6,74.4,74.7,74.1,34,35,33,0.973,44.3,45.1,43.5,11.25,11.2,199,6.9,15.0,0.00103,0.00134,71.7,74.0,19,0,0,72.2,17.30,0.00,0.00
15min,AgWx,beryljct,423,25AUG2018:00:15:00,71.1,13.01,74.4,74.6,74.3,74.7,73.8,34,35,33,0.969,43.9,44.6,43.2,11.18,11.5,198,6.8,16.3,0.00106,0.00137,71.5,73.9,19,0,0,72.1,17.30,0.00,0.00
15min,AgWx,beryljct,423,25AUG2018:00:30:00,71.9,13.01,74.3,74.2,74.3,74.6,73.9,34,35,33,0.987,44.0,44.8,43.2,15.7,11.8,198,6.5,18.7,0.00107,0.00138,71.3,73.8,19,0,0,72.1,17.30,0.00,0.00
15min,AgWx,beryljct,423,25AUG2018:00:45:00,72.3,13.01,74.2,74.0,74.2,74.5,73.7,35,37,34,1.024,44.8,45.7,44.1,13.35,12.4,196,7.1,17.2,0.00109,0.00139,71.1,73.7,19,0,0,72.1,17.30,0.00,0.00
15min,AgWx,beryljct,423,25AUG2018:01:00:00,72.4,13,73.7,73.3,73.7,74.1,73.2,36,37,36,1.029,45.4,45.8,45.1,8.18,11.4,194,7.7,16.6,0.00100,0.00129,70.9,73.6,19,0,0,71.6,17.30,0.00,0.00
15min,AgWx,beryljct,423,25AUG2018:01:15:00,72.1,12.98,72.5,72.0,72.6,73.3,71.9,38,39,36,1.027,45.2,46.0,44.5,9.89,9.7,189,6.5,14.7,0.00084,0.00111,70.7,73.5,19,0,0,70.3,17.30,0.00,0.00
15min,AgWx,beryljct,423,25AUG2018:01:30:00,71.3,12.98,70.6,70.2,70.8,72.0,70.0,40,41,38,0.986,45.1,45.5,44.2,7.958,8.0,190,5.3,10.6,0.00066,0.00090,70.6,73.4,19,0,0,68.3,17.30,0.00,0.00
15min,AgWx,beryljct,423,25AUG2018:01:45:00,70.3,12.97,70.2,70.4,70.1,70.4,69.9,39,40,38,1.017,44.2,45.1,43.4,7.059,8.1,198,5.4,9.8,0.00066,0.00089,70.4,73.3,20,0,0,67.4,17.30,0.00,0.00
15min,AgWx,beryljct,423,25AUG2018:02:00:00,69.4,12.97,68.2,65.0,68.8,70.4,65.0,44,56,40,1.191,45.9,49.2,45.1,4.297,5.8,177,15,9.1,0.00041,0.00059,70.2,73.2,19,0,0,66.3,17.29,0.00,0.00
15min,AgWx,beryljct,423,25AUG2018:02:15:00,68.2,12.97,67.9,69.0,67.4,69.2,64.1,48,57,46,1.119,47.1,49.1,46.3,7.168,6.5,189,11,9.5,0.00040,0.00057,70.0,73.1,19,0,0,64.8,17.30,0.00,0.00
15min,AgWx,beryljct,423,25AUG2018:02:30:00,67.6,12.96,67.8,67.3,67.9,69.0,67.2,50,52,46,1.182,48.6,49.2,47.6,4.713,6.1,191,6.7,8.7,0.00036,0.00053,69.9,73.0,19,0,0,65.4,17.29,0.00,0.00
15min,AgWx,beryljct,423,25AUG2018:02:45:00,67.0,12.95,67.1,67.0,67.2,67.6,66.7,53,55,52,1.250,49.7,50.5,49.0,3.595,5.2,190,5.5,7.8,0.00025,0.00038,69.7,72.9,19,0,0,64.4,17.30,0.00,0.00
15min,AgWx,beryljct,423,25AUG2018:03:00:00,66.4,12.94,67.2,66.9,67.1,67.4,66.9,56,57,55,1.271,50.8,51.2,50.4,3.288,4.1,187,13,7.9,0.00014,0.00024,69.5,72.8,19,0,0,64.2,17.30,0.00,0.00
15min,AgWx,beryljct,423,25AUG2018:03:15:00,65.5,12.93,64.9,65.0,65.1,67.0,62.3,60,66,56,1.225,50.9,51.2,49.9,1.798,1.4,215,11,3.9,-0.00017,-0.00022,69.3,72.7,19,0,0,61.7,17.30,0.00,0.00
15min,AgWx,beryljct,423,25AUG2018:03:30:00,64.2,12.93,61.4,60.5,61.8,64.8,58.9,65,72,59,1.198,49.9,50.7,49.0,1.929,1.6,307,37,2.9,-0.00016,-0.00021,69.1,72.6,19,0,0,59.6,17.30,0.00,0.00
15min,AgWx,beryljct,423,25AUG2018:03:45:00,62.8,12.91,61.5,62.5,61.2,62.5,60.0,64,67,61,1.179,49.0,49.5,48.6,2.258,2.3,320,5.2,3.3,-0.00009,-0.00009,69.0,72.5,19,0,0,58.4,17.31,0.00,0.00
15min,AgWx,beryljct,423,25AUG2018:04:00:00,61.9,12.92,61.6,61.4,61.5,62.6,60.5,64,66,61,1.156,49.1,49.7,48.3,4.187,1.5,321,9.2,4.2,-0.00017,-0.00022,68.8,72.4,19,0,0,58.5,17.31,0.00,0.00
15min,AgWx,beryljct,423,25AUG2018:04:15:00,61.3,12.91,62.0,62.3,61.7,63.9,60.9,62,65,57,1.197,48.7,49.4,48.4,0.921,0.8,348,11,4.5,-0.00024,-0.00035,68.7,72.3,19,0,0,58.2,17.31,0.00,0.00
15min,AgWx,beryljct,423,25AUG2018:04:30:00,60.6,12.91,59.7,59.1,60.0,63.1,58.3,67,71,60,1.186,49.0,49.5,48.6,0.877,0.2,347,8.1,1.0,-0.00032,-0.00050,68.5,72.2,19,0,0,57.2,17.31,0.00,0.00
15min,AgWx,beryljct,423,25AUG2018:04:45:00,59.9,12.91,59.1,57.9,59.1,60.2,57.7,71,75,66,1.219,49.7,50.4,49.0,1.513,0.3,6.7,0.1,1.5,-0.00032,-0.00049,68.3,72.1,19,0,0,56.0,17.31,0.00,0.00
15min,AgWx,beryljct,423,25AUG2018:05:00:00,59.1,12.9,57.0,56.4,57.0,58.6,55.8,74,78,69,1.153,48.9,49.6,48.3,1.863,1.7,350,4.3,4.2,-0.00017,-0.00023,68.1,72.0,19,0,0,55.0,17.31,0.00,0.00
15min,AgWx,beryljct,423,25AUG2018:05:15:00,58.4,12.89,56.2,55.9,56.1,57.3,54.6,77,81,73,1.200,48.8,49.5,48.2,2.389,2.1,338,9.3,3.5,0.00014,0.00024,67.9,71.9,19,0,0,54.1,17.31,0.00,0.00
15min,AgWx,beryljct,423,25AUG2018:05:30:00,57.9,12.89,58.1,57.8,57.6,59.2,55.9,71,78,66,1.163,48.1,49.3,47.7,1.469,2.6,334,3.5,4.3,0.00021,0.00037,67.8,71.4,19,0,0,55.0,17.31,0.00,0.00
15min,AgWx,beryljct,423,25AUG2018:05:45:00,57.6,12.88,58.4,57.6,58.2,59.0,57.2,67,71,65,1.108,47.4,48.4,46.8,1.008,0.5,331,0.1,1.7,0.00006,0.00010,67.6,71.7,19,0,0,54.7,17.31,0.00,0.00
15min,AgWx,beryljct,423,25AUG2018:06:00:00,57.3,12.89,56.8,54.9,56.9,59.0,54.8,71,78,64,1.141,47.6,48.3,46.7,1.995,1.4,331,0.4,2.5,0.00014,0.00023,67.5,71.6,19,3,0,54.5,17.31,0.00,0.00
15min,AgWx,beryljct,423,25AUG2018:06:15:00,57.0,12.89,56.2,55.5,55.9,57.5,54.3,71,78,67,1.072,46.7,48.2,46.1,3.683,2.5,23,37,3.9,0.00030,0.00045,67.3,71.5,19,17,0,55.4,17.31,0.00,0.00
15min,AgWx,beryljct,423,25AUG2018:06:30:00,56.8,12.91,55.6,56.6,55.3,56.6,54.4,72,76,64,0.999,46.3,47.0,44.5,3.266,2.9,63,1.2,3.6,0.00052,0.00070,67.1,71.4,19,52,0,60.3,17.31,0.00,0.00
15min,AgWx,beryljct,423,25AUG2018:06:45:00,57.2,12.91,57.0,56.3,56.9,57.7,56.1,69,75,61,1.141,46.8,48.9,44.4,2.192,1.6,342,49,3.5,0.00064,0.00077,67.0,71.3,19,91,0,67.0,17.31,0.00,0.00
15min,AgWx,beryljct,423,25AUG2018:07:00:00,58.4,12.9,58.4,59.1,58.0,59.1,56.2,71,76,67,1.173,48.5,49.3,47.9,1.951,1.9,312,7.1,4.6,0.00084,0.00100,66.8,71.2,19,130,0,72.6,17.31,0.00,0.00
15min,AgWx,beryljct,423,25AUG2018:07:15:00,59.4,12.93,59.2,59.2,59.0,59.2,58.7,69,72,66,1.140,49.0,50.1,48.0,1.951,1.7,310,5.5,3.5,0.00062,0.00077,66.6,71.1,19,75,0,67.8,17.31,0.00,0.00
15min,AgWx,beryljct,423,25AUG2018:07:30:00,60.2,12.97,60.2,60.7,60.0,60.7,59.2,67,73,64,1.300,49.2,51.7,47.4,0,1.0,316,0.0,2.1,0.00102,0.00115,66.5,71.0,19,158,0,72.4,17.31,0.00,0.00
15min,AgWx,beryljct,423,25AUG2018:07:45:00,62.4,13.09,63.3,65.0,62.8,65.0,60.7,64,71,58,1.229,50.5,52.2,49.0,1.798,1.9,340,18,3.1,0.00181,0.00207,66.4,70.9,19,293,0,84.7,17.31,0.00,0.00
15min,AgWx,beryljct,423,25AUG2018:08:00:00,65.1,13.21,65.4,65.0,65.3,65.7,65.0,66,73,58,1.525,53.5,56.5,50.0,1.469,0.6,23,31,3.0,0.00184,0.00202,66.3,70.8,19,294,0,89.6,17.30,0.00,0.00
15min,AgWx,beryljct,423,25AUG2018:08:15:00,67.2,13.47,65.5,66.2,65.4,66.2,64.8,66,72,61,1.440,53.6,56.1,51.8,1.951,2.3,86,1.6,3.1,0.00237,0.00269,66.2,70.7,19,372,0,90.1,17.30,0.00,0.00
15min,AgWx,beryljct,423,25AUG2018:08:30:00,69.6,13.79,67.5,68.6,67.3,68.6,66.2,65,71,60,1.628,54.9,58.0,51.9,1.929,2.1,82,4.2,3.0,0.00293,0.00328,66.2,70.6,19,458,0,97.4,17.30,0.00,0.00
15min,AgWx,beryljct,423,25AUG2018:08:45:00,72.1,14.08,70.2,70.9,70.0,70.9,68.6,61,68,58,1.533,56.1,58.1,53.7,6.16,3.1,86,6.6,6.8,0.00332,0.00379,66.3,70.5,19,496,0,99.3,17.30,0.00,0.00
15min,AgWx,beryljct,423,25AUG2018:09:00:00,73.9,14.09,72.1,74.3,71.8,74.3,70.9,58,65,46,1.330,56.4,59.6,52.2,4.845,3.0,98,29,7.2,0.00349,0.00399,66.4,70.4,19,505,0,97.5,17.30,0.00,0.00
15min,AgWx,beryljct,423,25AUG2018:09:15:00,76.7,14.07,78.3,78.5,78.1,79.1,74.7,38,44,35,1.206,50.3,51.7,49.0,12.8,11.8,204,12,17.3,0.00539,0.00719,66.5,70.3,19,611,0,97.5,17.29,0.00,0.00
15min,AgWx,beryljct,423,25AUG2018:09:30:00,78.5,13.96,78.6,78.8,78.7,79.1,78.0,36,37,35,1.197,49.4,50.6,48.4,18.06,14.0,215,9.6,20.0,0.00543,0.00751,66.8,70.3,19,552,0,92.9,17.29,0.00,0.00
15min,AgWx,beryljct,423,25AUG2018:09:45:00,79.6,14.02,79.0,79.8,79.0,79.8,78.6,36,38,34,1.203,49.6,50.9,48.6,14.21,13.7,211,9.6,20.3,0.00593,0.00802,67.0,70.2,19,645,0,94.6,17.28,0.00,0.00
15min,AgWx,beryljct,423,25AUG2018:10:00:00,81.0,13.9,79.8,79.8,80.0,80.6,79.5,35,37,34,1.224,50.2,51.6,49.3,11.55,13.8,203,9.6,19.6,0.00675,0.00895,67.3,70.1,19,784,0,98.9,17.28,0.00,0.00
15min,AgWx,beryljct,423,25AUG2018:10:15:00,82.1,13.89,79.9,80.3,80.0,81.2,78.4,36,43,33,1.220,50.4,54.2,48.6,14.82,12.7,197,17,19.3,0.00691,0.00899,67.6,70.1,19,830,0,100.0,17.28,0.00,0.00
15min,AgWx,beryljct,423,25AUG2018:10:30:00,82.8,13.98,80.2,80.4,80.3,81.0,79.5,34,36,33,1.256,49.4,50.7,48.1,10.13,14.1,203,14,20.7,0.00714,0.00944,68.0,70.1,19,834,0,98.9,17.28,0.00,0.00
15min,AgWx,beryljct,423,25AUG2018:10:45:00,83.2,13.49,80.7,81.3,80.8,82.1,80.2,33,36,31,1.187,49.4,51.1,47.9,13.9,11.8,208,14,19.1,0.00677,0.00882,68.4,70.1,19,784,0,99.0,17.28,0.00,0.00
15min,AgWx,beryljct,423,25AUG2018:11:00:00,83.5,13.55,80.6,81.1,80.8,81.5,80.1,33,35,29,1.079,48.6,50.3,45.8,14.56,11.4,216,24,19.8,0.00713,0.00918,68.9,70.1,19,855,0,98.6,17.28,0.00,0.00
15min,AgWx,beryljct,423,25AUG2018:11:15:00,83.7,13.46,80.5,80.1,80.8,81.8,79.9,33,36,30,1.200,49.0,50.7,47.2,13.57,12.9,201,13,17.6,0.00637,0.00853,69.4,70.1,19,681,0,95.6,17.28,0.00,0.00
15min,AgWx,beryljct,423,25AUG2018:11:30:00,83.6,13.47,81.2,81.9,81.2,82.1,80.0,32,35,30,1.168,48.7,49.8,47.0,15.59,12.9,215,15,18.9,0.00758,0.00984,69.9,70.2,19,906,0,98.3,17.28,0.00,0.00
15min,AgWx,beryljct,423,25AUG2018:11:45:00,84.0,13.48,81.0,80.9,81.2,82.1,80.5,32,35,30,1.203,48.4,51.6,46.8,9.54,13.6,206,21,21.2,0.00703,0.00935,70.5,70.2,19,779,0,96.4,17.27,0.00,0.00
15min,AgWx,beryljct,423,25AUG2018:12:00:00,84.2,13.45,81.8,81.9,81.9,83.1,80.7,30,35,28,1.180,47.8,50.4,46.2,9.14,13.1,205,18,20.8,0.00785,0.01022,71.1,70.3,19,927,0,98.3,17.28,0.00,0.00
15min,AgWx,beryljct,423,25AUG2018:12:15:00,84.9,13.42,83.2,83.2,83.2,84.0,81.6,28,34,26,1.039,46.6,50.8,45.0,15.56,15.0,215,14,22.3,0.00826,0.01097,71.6,70.4,19,933,0,98.8,17.28,0.00,0.00
15min,AgWx,beryljct,423,25AUG2018:12:30:00,85.2,13.45,82.5,82.3,82.8,83.3,82.1,28,29,26,1.052,46.1,47.6,44.7,18.02,15.0,204,9.1,20.7,0.00765,0.01032,72.2,70.5,19,824,0,96.8,17.28,0.00,0.00
15min,AgWx,beryljct,423,25AUG2018:12:45:00,85.0,13.5,82.0,80.9,82.4,83.8,80.9,25,27,22,0.930,42.7,45.8,39.6,13.77,15.6,211,12,20.7,0.00697,0.00976,72.8,70.7,19,659,0,93.4,17.28,0.00,0.00
15min,AgWx,beryljct,423,25AUG2018:13:00:00,84.2,13.44,81.6,83.2,81.5,83.2,80.6,27,29,25,1.076,44.4,47.5,41.9,15.92,13.8,219,13,18.8,0.00661,0.00907,73.4,70.8,19,675,0,91.2,17.28,0.00,0.00
15min,AgWx,beryljct,423,25AUG2018:13:15:00,84.9,13.43,83.2,84.2,83.3,84.4,82.1,28,30,25,1.003,46.4,47.9,44.5,14.53,12.9,223,19,18.8,0.00852,0.01102,73.9,71.0,19,1000,0,99.4,17.28,0.00,0.00
15min,AgWx,beryljct,423,25AUG2018:13:30:00,86.0,13.4,84.5,85.0,84.6,85.4,83.6,25,28,22,0.891,45.0,47.6,41.6,15.41,14.3,213,13,22.7,0.00838,0.01115,74.4,71.1,19,925,0,98.5,17.28,0.00,0.00
15min,AgWx,beryljct,423,25AUG2018:13:45:00,86.6,13.39,84.2,84.6,84.4,85.5,83.5,23,26,21,0.925,43.0,45.8,40.8,16.68,13.3,206,15,18.9,0.00714,0.00976,74.9,71.3,19,727,0,95.9,17.28,0.00,0.00
15min,AgWx,beryljct,423,25AUG2018:14:00:00,87.1,13.39,84.0,84.1,84.3,85.5,83.5,23,27,21,0.849,42.9,46.5,39.7,18.46,16.1,194,12,25.4,0.00753,0.01050,75.4,71.5,19,745,0,95.0,17.28,0.00,0.00
15min,AgWx,beryljct,423,25AUG2018:14:15:00,86.2,13.41,82.3,84.1,82.4,84.1,81.6,25,28,21,1.109,43.3,47.3,39.5,10.39,13.8,208,13,19.8,0.00567,0.00816,75.9,71.7,19,482,0,88.8,17.28,0.00,0.00
15min,AgWx,beryljct,423,25AUG2018:14:30:00,86.8,13.39,84.8,85.5,84.9,85.9,84.0,24,28,20,0.822,44.0,47.4,39.5,13.33,13.9,213,11,20.5,0.00858,0.01134,76.3,71.9,19,954,0,98.6,17.28,0.00,0.00
15min,AgWx,beryljct,423,25AUG2018:14:45:00,87.5,13.45,84.9,85.0,85.1,85.5,84.4,20,23,19,0.847,40.2,42.9,37.5,11.71,14.7,217,13,22.0,0.00805,0.01100,76.7,72.1,19,834,0,95.4,17.28,0.00,0.00
15min,AgWx,beryljct,423,25AUG2018:15:00:00,88.0,13.39,85.7,86.9,85.7,86.9,84.9,19,22,18,0.803,39.4,42.3,37.0,18.15,13.4,212,15,19.7,0.00766,0.01046,76.9,72.3,19,789,0,94.5,17.28,0.00,0.00
15min,AgWx,beryljct,423,25AUG2018:15:15:00,88.6,13.33,85.4,85.3,85.7,86.9,84.2,20,24,17,0.789,39.4,44.1,35.8,12.63,13.9,198,15,21.8,0.00704,0.00989,77.1,72.5,19,680,0,94.0,17.28,0.00,0.00
15min,AgWx,beryljct,423,25AUG2018:15:30:00,88.8,13.34,85.4,86.0,85.6,86.1,84.9,19,21,17,0.840,38.8,41.3,36.1,15.59,14.0,211,12,19.6,0.00721,0.01007,77.1,72.7,19,708,0,92.7,17.28,0.00,0.00
15min,AgWx,beryljct,423,25AUG2018:15:45:00,88.9,13.33,85.2,85.7,85.4,86.2,83.2,21,27,18,0.842,41.4,45.5,38.1,16.2,13.5,199,19,23.6,0.00682,0.00953,77.2,72.9,19,668,0,91.8,17.28,0.00,0.00
15min,AgWx,beryljct,423,25AUG2018:16:00:00,89.0,13.33,85.7,86.0,85.8,86.3,85.2,20,22,18,0.789,40.3,42.1,38.0,18.55,12.7,207,18,21.3,0.00630,0.00890,77.3,73.1,19,599,0,91.2,17.27,0.00,0.00
15min,AgWx,beryljct,423,25AUG2018:16:15:00,89.1,13.31,85.6,86.0,85.8,86.5,85.2,19,20,18,0.859,38.7,40.6,37.0,9.97,12.5,222,16,19.9,0.00621,0.00885,77.4,73.2,19,582,0,90.5,17.28,0.00,0.00
15min,AgWx,beryljct,423,25AUG2018:16:30:00,89.2,13.31,85.9,85.9,86.1,86.8,85.3,21,24,19,0.851,41.1,44.5,39.1,16.4,12.6,198,13,20.4,0.00588,0.00844,77.6,73.4,19,539,0,90.5,17.28,0.00,0.00
15min,AgWx,beryljct,423,25AUG2018:16:45:00,89.1,13.31,85.5,85.3,85.7,86.2,84.8,21,24,20,0.923,41.8,44.1,40.1,13.55,12.6,197,12,17.8,0.00554,0.00806,77.8,73.6,19,493,0,89.2,17.28,0.00,0.00
15min,AgWx,beryljct,423,25AUG2018:17:00:00,88.7,13.34,84.6,85.3,84.7,85.6,82.3,23,28,21,0.874,42.6,46.4,40.8,14.1,12.9,193,23,20.4,0.00523,0.00771,78.1,73.7,19,452,0,87.6,17.28,0.00,0.00
15min,AgWx,beryljct,423,25AUG2018:17:15:00,88.3,13.31,84.6,84.5,84.8,85.6,83.7,22,25,20,0.873,41.5,43.7,39.9,15.19,13.4,189,11,20.3,0.00500,0.00756,78.3,73.9,19,400,0,86.7,17.28,0.00,0.00
15min,AgWx,beryljct,423,25AUG2018:17:30:00,87.8,13.37,84.8,84.8,84.9,85.3,84.4,22,23,21,0.885,41.3,42.8,40.2,15.48,14.5,200,10,19.6,0.00475,0.00744,78.5,74.0,19,329,0,85.6,17.28,0.00,0.00
15min,AgWx,beryljct,423,25AUG2018:17:45:00,87.2,13.37,84.1,83.6,84.3,84.7,83.1,22,25,21,0.900,41.7,43.7,40.7,14.03,12.3,194,11,16.4,0.00395,0.00627,78.6,74.1,19,274,0,84.2,17.28,0.00,0.00
15min,AgWx,beryljct,423,25AUG2018:18:00:00,86.0,13.33,81.8,82.6,82.1,84.0,81.1,25,28,22,0.914,42.4,44.8,41.1,9.78,12.7,182,13,18.3,0.00326,0.00548,78.7,74.3,19,180,0,81.6,17.28,0.00,0.00
15min,AgWx,beryljct,423,25AUG2018:18:15:00,84.6,13.26,81.9,81.9,82.1,82.7,81.6,24,25,22,0.901,41.5,42.9,39.8,9.4,11.6,192,13,16.1,0.00270,0.00476,78.8,74.4,19,120,0,80.9,17.28,0.00,0.00
15min,AgWx,beryljct,423,25AUG2018:18:30:00,83.9,13.2,82.3,82.3,82.3,82.5,81.9,23,25,23,0.883,41.4,42.7,40.7,10.17,11.6,191,8.7,15.6,0.00181,0.00234,78.8,74.6,19,154,0,81.5,17.28,0.00,0.00
15min,AgWx,beryljct,423,25AUG2018:18:45:00,83.1,13.2,81.0,80.6,81.3,82.2,80.6,24,25,23,0.900,40.9,42.5,40.1,8.72,11.7,195,9.0,15.9,0.00156,0.00203,78.7,74.7,19,52,0,79.9,17.28,0.00,0.00
15min,AgWx,beryljct,423,25AUG2018:19:00:00,81.9,13.17,80.1,79.4,80.3,80.7,79.4,25,27,24,0.908,41.1,42.1,40.2,6.774,9.5,194,7.4,13.7,0.00130,0.00174,78.6,74.8,19,41,0,78.1,17.28,0.00,0.00
15min,AgWx,beryljct,423,25AUG2018:19:15:00,80.7,13.14,78.9,78.5,79.1,79.7,78.4,27,28,26,0.917,42.0,42.6,41.3,7.98,9.3,196,6.8,13.9,0.00112,0.00152,78.5,74.9,19,6,0,76.4,17.29,0.00,0.00
15min,AgWx,beryljct,423,25AUG2018:19:30:00,79.4,13.14,77.8,77.1,78.0,78.5,77.1,28,30,27,0.942,42.6,43.2,42.0,6.993,8.0,196,5.6,11.9,0.00093,0.00130,78.3,75.0,19,2,0,75.0,17.29,0.00,0.00
15min,AgWx,beryljct,423,25AUG2018:19:45:00,78.3,13.14,77.1,76.9,77.1,77.5,76.4,29,31,28,0.914,42.4,43.3,41.6,7.958,8.3,196,7.3,11.4,0.00093,0.00128,78.1,75.1,19,0,0,74.1,17.29,0.00,0.00
15min,AgWx,beryljct,423,25AUG2018:20:00:00,77.3,13.12,76.2,75.8,76.3,77.1,75.7,29,30,28,0.890,41.8,42.4,41.3,6.664,7.5,193,5.7,10.2,0.00083,0.00117,77.8,75.2,19,0,0,73.3,17.29,0.00,0.00
15min,AgWx,beryljct,423,25AUG2018:20:15:00,76.1,13.12,74.5,73.2,74.8,76.3,73.2,30,33,28,0.910,41.5,42.2,40.6,3.946,5.6,189,5.6,9.0,0.00059,0.00087,77.6,75.3,19,0,0,71.6,17.29,0.00,0.00
15min,AgWx,beryljct,423,25AUG2018:20:30:00,74.5,13.11,71.8,69.0,72.3,73.8,68.7,34,42,30,0.958,42.1,45.2,40.4,3.486,3.4,165,16,5.1,0.00022,0.00038,77.3,75.3,19,0,0,68.8,17.29,0.00,0.00
15min,AgWx,beryljct,423,25AUG2018:20:45:00,72.1,13.09,66.2,65.0,66.7,69.2,65.0,47,52,40,1.040,45.6,48.4,43.6,4.538,4.3,128,6.3,5.2,0.00022,0.00036,77.0,75.3,19,0,0,63.9,17.30,0.00,0.00
15min,AgWx,beryljct,423,25AUG2018:21:00:00,69.8,13.1,67.7,68.5,67.2,69.3,64.7,42,50,35,0.905,43.0,45.9,40.7,3.683,4.2,165,15,5.9,0.00025,0.00040,76.7,75.4,19,0,0,63.9,17.30,0.00,0.00
15min,AgWx,beryljct,423,25AUG2018:21:15:00,68.0,13.07,63.5,63.3,64.1,68.5,61.8,50,57,39,1.007,45.0,46.6,41.9,4.143,4.6,149,12,5.6,0.00021,0.00033,76.5,75.4,19,0,0,62.2,17.30,0.00,0.00
15min,AgWx,beryljct,423,25AUG2018:21:30:00,66.5,13.07,64.6,65.2,64.3,67.3,61.9,48,57,39,1.020,44.2,46.5,41.4,3.814,4.6,156,13,5.5,0.00023,0.00035,76.1,75.4,19,0,0,61.8,17.30,0.00,0.00
15min,AgWx,beryljct,423,25AUG2018:21:45:00,65.5,13.07,64.6,68.1,64.2,68.1,61.5,48,57,39,0.917,44.0,46.3,41.8,4.757,4.9,158,18,6.3,0.00025,0.00039,75.8,75.4,19,0,0,62.1,17.30,0.00,0.00
15min,AgWx,beryljct,423,25AUG2018:22:00:00,65.0,13.06,63.4,63.2,63.9,67.9,61.0,49,57,40,0.995,44.2,45.8,42.3,5.239,5.5,149,11,7.3,0.00030,0.00044,75.5,75.3,19,0,0,62.4,17.31,0.00,0.00
15min,AgWx,beryljct,423,25AUG2018:22:15:00,64.7,13.06,66.5,68.4,65.8,68.4,63.0,44,51,39,0.924,43.1,44.7,42.1,4.669,5.2,166,5.5,6.0,0.00032,0.00048,75.2,75.3,19,0,0,63.2,17.31,0.00,0.00
15min,AgWx,beryljct,423,25AUG2018:22:30:00,64.7,13.04,63.8,59.1,64.8,69.2,59.0,50,64,37,1.090,44.8,47.2,42.0,5.393,5.3,154,17,7.7,0.00030,0.00044,74.9,75.3,19,0,0,63.0,17.31,0.00,0.00
15min,AgWx,beryljct,423,25AUG2018:22:45:00,63.8,13.03,61.4,62.5,60.9,62.5,59.0,57,64,52,0.998,45.3,46.8,44.3,4.494,5.4,158,15,6.9,0.00020,0.00030,74.6,75.2,19,0,0,59.3,17.31,0.00,0.00
15min,AgWx,beryljct,423,25AUG2018:23:00:00,63.3,13.02,62.9,64.3,62.6,64.3,61.6,51,55,47,0.960,44.4,45.6,43.4,4.669,3.7,194,5.8,4.8,0.00011,0.00019,74.3,75.1,20,0,0,59.9,17.31,0.00,0.00
15min,AgWx,beryljct,423,25AUG2018:23:15:00,63.2,13.01,64.4,64.9,64.2,65.2,63.2,49,54,47,0.988,44.8,46.4,43.5,3.946,3.3,183,2.7,4.9,0.00010,0.00018,74.0,75.1,20,0,0,61.2,17.31,0.00,0.00
15min,AgWx,beryljct,423,25AUG2018:23:30:00,63.2,13.01,64.8,65.4,64.7,65.5,62.3,49,57,47,1.029,45.2,46.9,44.3,4.231,3.9,176,3.9,5.3,0.00015,0.00026,73.7,75.0,20,0,0,62.0,17.31,0.00,0.00
15min,AgWx,bigpiney,439,25AUG2018:00:00:00,47.7,12.78,45.8,44.6,44.9,46.4,41.8,69,76,67,0.712,35.5,36.1,33.9,3.858,3.7,271,25,5.3,-0.00002,-0.00000,53.1,52.6,42,0,0,0.0,.,0.00,0.00
15min,AgWx,bigpiney,439,25AUG2018:00:15:00,47.3,12.76,45.5,44.4,44.3,46.6,41.8,71,77,66,0.725,35.5,36.4,33.9,0.57,1.0,233,38,4.0,-0.00020,-0.00028,53.0,52.6,42,0,0,0.0,.,0.00,0.00
15min,AgWx,bigpiney,439,25AUG2018:00:30:00,46.8,12.75,43.4,42.9,40.5,44.5,38.6,79,84,71,0.704,34.5,36.1,33.4,2.061,2.1,240,21,5.0,-0.00013,-0.00016,53.0,52.6,42,0,0,0.0,.,0.00,0.00
15min,AgWx,bigpiney,439,25AUG2018:00:45:00,46.4,12.75,44.5,44.2,45.0,46.7,42.9,72,76,69,0.737,36.4,37.4,35.4,3.88,2.8,275,46,4.7,-0.00008,-0.00008,52.9,52.6,42,0,0,0.0,.,0.00,0.00
15min,AgWx,bigpiney,439,25AUG2018:01:00:00,46.4,12.74,43.1,42.8,42.1,44.2,41.1,80,83,74,0.738,36.3,37.5,35.5,3.244,3.8,221,27,4.7,-0.00006,-0.00007,52.9,52.6,42,0,0,0.0,.,0.00,0.00
15min,AgWx,bigpiney,439,25AUG2018:01:15:00,46.4,12.73,40.6,40.2,40.9,42.7,40.2,85,88,79,0.743,36.7,37.0,36.2,4.428,3.8,205,27,5.3,-0.00009,-0.00010,52.9,52.5,42,0,0,0.0,.,0.00,0.00
15min,AgWx,bigpiney,439,25AUG2018:01:30:00,46.2,12.72,42.7,42.2,41.4,42.3,40.2,86,88,84,0.766,37.4,37.9,36.9,2.499,4.6,242,7.9,5.8,-0.00007,-0.00007,52.8,52.6,42,0,0,0.0,.,0.00,0.00
15min,AgWx,bigpiney,439,25AUG2018:01:45:00,46.1,12.72,43.9,43.1,42.3,43.8,41.3,84,87,82,0.795,37.9,39.2,37.1,1.447,2.0,245,26,2.8,-0.00015,-0.00020,52.7,52.5,42,0,0,0.0,.,0.00,0.00
15min,AgWx,bigpiney,439,25AUG2018:02:00:00,46.0,12.7,44.3,44.9,44.0,45.4,43.2,82,84,78,0.810,38.8,39.5,37.8,3.201,1.9,247,12,3.2,-0.00016,-0.00020,52.7,52.6,42,0,0,0.0,.,0.00,0.00
15min,AgWx,bigpiney,439,25AUG2018:02:15:00,45.9,12.7,39.8,39.5,40.8,44.9,39.4,85,89,79,0.728,36.6,38.8,35.8,1.403,2.0,223,12,4.4,-0.00015,-0.00019,52.6,52.6,42,0,0,0.0,.,0.00,0.00
15min,AgWx,bigpiney,439,25AUG2018:02:30:00,45.6,12.69,43.0,43.3,42.0,43.9,39.4,85,90,80,0.780,38.0,38.7,36.3,0,0.5,255,14,1.4,-0.00024,-0.00036,52.6,52.5,42,0,0,0.0,.,0.00,0.00
15min,AgWx,bigpiney,439,25AUG2018:02:45:00,45.2,12.68,44.4,42.3,43.5,44.6,40.7,81,87,77,0.798,37.9,38.7,35.3,2.061,1.1,255,5.4,2.8,-0.00020,-0.00028,52.5,52.5,42,0,0,0.0,.,0.00,0.00
15min,AgWx,bigpiney,439,25AUG2018:03:00:00,44.9,12.67,40.8,41.1,41.9,44.3,40.5,83,87,78,0.737,37.2,38.9,36.3,3.771,2.5,250,20,4.0,-0.00013,-0.00015,52.5,52.5,42,0,0,0.0,.,0.00,0.00
15min,AgWx,bigpiney,439,25AUG2018:03:15:00,44.3,12.66,37.2,37.8,39.7,41.1,37.8,85,87,84,0.651,35.6,37.0,33.6,3.639,4.3,211,15,5.2,-0.00007,-0.00008,52.4,52.5,42,0,0,0.0,.,0.00,0.00
15min,AgWx,bigpiney,439,25AUG2018:03:30:00,43.7,12.65,37.2,37.0,37.8,39.2,36.8,87,89,84,0.662,34.2,35.6,33.3,3.398,3.3,209,13,4.1,-0.00010,-0.00012,52.4,52.5,42,0,0,0.0,.,0.00,0.00
15min,AgWx,bigpiney,439,25AUG2018:03:45:00,43.0,12.63,37.4,37.2,36.9,37.4,36.6,90,90,89,0.674,34.1,34.6,33.8,2.828,3.3,207,9.1,4.7,-0.00011,-0.00013,52.3,52.5,42,0,0,0.0,.,0.00,0.00
15min,AgWx,bigpiney,439,25AUG2018:04:00:00,42.6,12.63,37.6,37.2,37.2,37.6,36.8,89,90,88,0.673,34.4,34.6,33.9,4.187,3.4,174,15,4.5,-0.00011,-0.00013,52.2,52.4,42,0,0,0.0,.,0.00,0.00
15min,AgWx,bigpiney,439,25AUG2018:04:15:00,42.3,12.62,39.0,37.6,37.3,37.6,37.1,89,90,88,0.688,34.4,35.0,34.1,3.617,3.8,207,12,5.8,-0.00010,-0.00011,52.2,52.4,42,0,0,0.0,.,0.00,0.00
15min,AgWx,bigpiney,439,25AUG2018:04:30:00,42.0,12.6,42.2,40.6,38.3,40.6,37.6,88,90,82,0.705,35.0,35.9,34.4,3.091,2.9,263,19,4.4,-0.00012,-0.00014,52.2,52.4,42,0,0,0.0,.,0.00,0.00
15min,AgWx,bigpiney,439,25AUG2018:04:45:00,41.8,12.6,43.1,41.9,41.2,42.1,39.5,78,82,76,0.694,35.0,35.9,33.7,3.814,3.4,279,18,4.4,-0.00007,-0.00008,52.1,52.4,42,0,0,0.0,.,0.00,0.00
15min,AgWx,bigpiney,439,25AUG2018:05:00:00,41.8,12.57,41.6,41.5,40.6,42.2,39.4,79,81,75,0.697,34.5,35.3,33.3,3.858,4.0,270,18,6.3,-0.00005,-0.00005,52.0,52.4,42,0,0,0.0,.,0.00,0.00
15min,AgWx,bigpiney,439,25AUG2018:05:15:00,42.3,12.56,41.2,42.1,42.8,44.2,40.6,75,81,70,0.696,35.3,35.9,34.9,6.971,3.0,201,78,7.1,-0.00008,-0.00008,52.0,52.3,42,0,0,0.0,.,0.00,0.00
15min,AgWx,bigpiney,439,25AUG2018:05:30:00,42.9,12.56,39.7,39.2,40.2,41.9,39.2,83,87,77,0.705,35.6,35.9,35.2,8.18,6.2,194,59,10.1,-0.00002,-0.00001,51.9,52.3,42,0,0,0.0,.,0.00,0.00
15min,AgWx,bigpiney,439,25AUG2018:05:45:00,43.1,12.55,42.1,41.2,41.1,41.8,39.3,82,87,79,0.705,36.1,36.5,35.6,4.165,4.3,258,34,9.1,-0.00005,-0.00005,51.9,52.3,42,3,0,0.0,.,0.00,0.00
15min,AgWx,bigpiney,439,25AUG2018:06:00:00,43.2,12.55,42.1,41.1,40.9,41.8,40.5,81,83,79,0.700,35.6,36.0,35.2,4.56,3.8,241,22,5.4,0.00003,0.00013,51.8,52.3,42,9,0,0.0,.,0.00,0.00
15min,AgWx,bigpiney,439,25AUG2018:06:15:00,43.0,12.57,40.5,40.5,41.2,42.5,40.5,78,80,76,0.677,35.1,36.3,34.5,3.814,3.7,253,9.4,5.1,0.00012,0.00023,51.8,52.3,42,19,0,0.0,.,0.00,0.00
15min,AgWx,bigpiney,439,25AUG2018:06:30:00,42.8,12.63,41.3,41.3,40.5,41.3,40.1,80,81,79,0.704,34.8,35.6,34.4,4.538,4.4,251,3.8,5.5,0.00015,0.00026,51.7,52.3,42,60,0,0.0,.,0.00,0.00
15min,AgWx,bigpiney,439,25AUG2018:06:45:00,43.1,12.67,44.1,43.6,42.5,43.8,41.2,81,84,80,0.794,37.2,38.6,35.6,2.565,3.6,237,11,5.7,0.00027,0.00038,51.7,52.3,42,121,0,0.0,.,0.00,0.00
15min,AgWx,bigpiney,439,25AUG2018:07:00:00,44.2,12.76,46.9,46.6,45.4,46.6,43.6,79,83,77,0.878,39.4,41.2,38.5,1.732,1.8,206,33,2.8,0.00047,0.00056,51.6,52.3,42,161,0,0.0,.,0.00,0.00
15min,AgWx,bigpiney,439,25AUG2018:07:15:00,45.6,12.96,47.7,47.3,46.7,47.3,46.2,81,83,79,0.909,41.1,42.2,40.3,2.28,2.1,160,33,3.2,0.00073,0.00084,51.6,52.2,42,207,0,0.0,.,0.00,0.00
15min,AgWx,bigpiney,439,25AUG2018:07:30:00,47.1,13.25,50.3,50.0,49.2,50.2,47.3,74,81,66,0.818,41.2,43.1,38.9,1.271,1.3,169,56,3.1,0.00103,0.00116,51.5,52.2,42,253,0,0.0,.,0.00,0.00
15min,AgWx,bigpiney,439,25AUG2018:07:45:00,48.7,13.47,50.7,50.7,50.2,50.8,49.9,71,74,66,0.895,41.2,42.4,39.0,2.324,2.5,90,13,3.6,0.00136,0.00156,51.5,52.2,42,303,0,0.0,.,0.00,0.00
15min,AgWx,bigpiney,439,25AUG2018:08:00:00,50.7,13.65,52.3,52.1,51.2,52.1,50.7,68,74,60,0.801,41.1,43.3,38.2,1.074,2.0,88,23,3.7,0.00167,0.00189,51.4,52.2,42,357,0,0.0,.,0.00,0.00
15min,AgWx,bigpiney,439,25AUG2018:08:15:00,52.9,13.98,54.3,53.3,53.0,53.6,52.2,60,65,56,0.789,39.5,41.8,37.0,0.921,1.3,96,47,2.9,0.00200,0.00222,51.4,52.1,42,405,0,0.0,.,0.00,0.00